User: anonymous   Login
Location: Cimarron National Grasslands
(37.1250°N, 101.7500°W)
Time: 11:22:09
(UTC-06:00)
Language:

Ariane Rocket - Orbit

View from above orbital plane
View from above orbital plane
View from above satellite
View from above satellite

Ground track
Ground track

The orbit data is extracted from the following two-line orbital elements,

1 23561U 95021B   16037.53066576  .00000146  00000-0  63908-4 0  9990
2 23561  98.7583  22.1656 0006002 293.3290 175.6944 14.37701624 89881
Epoch (UTC): 06 February 2016 12:44:09
Eccentricity: 0.0006002
inclination: 98.7583°
perigee height: 762 km
apogee height: 770 km
right ascension of ascending node: 22.1656°
argument of perigee: 293.3290°
revolutions per day: 14.37701624
mean anomaly at epoch: 175.6944°
orbit number at epoch: 8988

The dashed part of the orbit path shows where the satellite is in the earth's shadow,  

DLR